Location: Chircca
(13.7944°S, 72.0608°W)
Time: 05:24:16
(UTC+00:00)

Cosmos 1980 Rocket - Pass Details

Date: 14 July 2020
Orbit: 828 x 851 km, 71.0° (Epoch: 14 August)

Event Time Altitude Azimuth Distance (km) Brightness Sun altitude
Rises 08:45:34 0° 352° (N) 3,382 5.4 -34.6°
Reaches altitude 10° 08:48:02 10° 356° (N) 2,449 4.7 -34.1°
Enters shadow 08:48:29 12° 357° (N) 2,281 4.5 -34.0°
Exits shadow 08:57:01 23° 148° (SSE) 1,706 3.9 -32.0°
Drops below altitude 10° 08:59:06 10° 154° (SSE) 2,454 4.7 -31.5°
Sets 09:01:34 0° 157° (SSE) 3,389 5.4 -30.9°
